Year,Month,Day,Hour,Minute,Value (Times are PST for insolation in W/m^2)
2011,07,07,00,00,0.00
2011,07,07,00,01,0.00
2011,07,07,00,02,0.00
2011,07,07,00,03,0.00
2011,07,07,00,04,0.00
2011,07,07,00,05,0.00
2011,07,07,00,06,0.00
2011,07,07,00,07,0.00
2011,07,07,00,08,0.00
2011,07,07,00,09,0.00
2011,07,07,00,10,0.00
2011,07,07,00,11,0.00
2011,07,07,00,12,0.00
2011,07,07,00,13,0.00
2011,07,07,00,14,0.00
2011,07,07,00,15,0.00
2011,07,07,00,16,0.00
2011,07,07,00,17,0.00
2011,07,07,00,18,0.00
2011,07,07,00,19,0.00
2011,07,07,00,20,0.00
2011,07,07,00,21,0.00
2011,07,07,00,22,0.00
2011,07,07,00,23,0.00
2011,07,07,00,24,0.00
2011,07,07,00,25,0.00
2011,07,07,00,26,0.00
2011,07,07,00,27,0.00
2011,07,07,00,28,0.00
2011,07,07,00,29,0.00
2011,07,07,00,30,0.00
2011,07,07,00,31,0.00
2011,07,07,00,32,0.00
2011,07,07,00,33,0.00
2011,07,07,00,34,0.00
2011,07,07,00,35,0.00
2011,07,07,00,36,0.00
2011,07,07,00,37,0.00
2011,07,07,00,38,0.00
2011,07,07,00,39,0.00
2011,07,07,00,40,0.00
2011,07,07,00,41,0.00
2011,07,07,00,42,0.00
2011,07,07,00,43,0.00
2011,07,07,00,44,0.00
2011,07,07,00,45,0.00
2011,07,07,00,46,0.00
2011,07,07,00,47,0.00
2011,07,07,00,48,0.00
2011,07,07,00,49,0.00
2011,07,07,00,50,0.00
2011,07,07,00,51,0.00
2011,07,07,00,52,0.00
2011,07,07,00,53,0.00
2011,07,07,00,54,0.00
2011,07,07,00,55,0.00
2011,07,07,00,56,0.00
2011,07,07,00,57,0.00
2011,07,07,00,58,0.00
2011,07,07,00,59,0.00
2011,07,07,01,00,0.00
2011,07,07,01,01,0.00
2011,07,07,01,02,0.00
2011,07,07,01,03,0.00
2011,07,07,01,04,0.00
2011,07,07,01,05,0.00
2011,07,07,01,06,0.00
2011,07,07,01,07,0.00
2011,07,07,01,08,0.00
2011,07,07,01,09,0.00
2011,07,07,01,10,0.00
2011,07,07,01,11,0.00
2011,07,07,01,12,0.00
2011,07,07,01,13,0.00
2011,07,07,01,14,0.00
2011,07,07,01,15,0.00
2011,07,07,01,16,0.00
2011,07,07,01,17,0.00
2011,07,07,01,18,0.00
2011,07,07,01,19,0.00
2011,07,07,01,20,0.00
2011,07,07,01,21,0.00
2011,07,07,01,22,0.00
2011,07,07,01,23,0.00
2011,07,07,01,24,0.00
2011,07,07,01,25,0.00
2011,07,07,01,26,0.00
2011,07,07,01,27,0.00
2011,07,07,01,28,0.00
2011,07,07,01,29,0.00
2011,07,07,01,30,0.00
2011,07,07,01,31,0.00
2011,07,07,01,32,0.00
2011,07,07,01,33,0.00
2011,07,07,01,34,0.00
2011,07,07,01,35,0.00
2011,07,07,01,36,0.00
2011,07,07,01,37,0.00
2011,07,07,01,38,0.00
2011,07,07,01,39,0.00
2011,07,07,01,40,0.00
2011,07,07,01,41,0.00
2011,07,07,01,42,0.00
2011,07,07,01,43,0.00
2011,07,07,01,44,0.00
2011,07,07,01,45,0.00
2011,07,07,01,46,0.00
2011,07,07,01,47,0.00
2011,07,07,01,48,0.00
2011,07,07,01,49,0.00
2011,07,07,01,50,0.00
2011,07,07,01,51,0.00
2011,07,07,01,52,0.00
2011,07,07,01,53,0.00
2011,07,07,01,54,0.00
2011,07,07,01,55,0.00
2011,07,07,01,56,0.00
2011,07,07,01,57,0.00
2011,07,07,01,58,0.00
2011,07,07,01,59,0.00
2011,07,07,02,00,0.00
2011,07,07,02,01,0.00
2011,07,07,02,02,0.00
2011,07,07,02,03,0.00
2011,07,07,02,04,0.00
2011,07,07,02,05,0.00
2011,07,07,02,06,0.00
2011,07,07,02,07,0.00
2011,07,07,02,08,0.00
2011,07,07,02,09,0.00
2011,07,07,02,10,0.00
2011,07,07,02,11,0.00
2011,07,07,02,12,0.00
2011,07,07,02,13,0.00
2011,07,07,02,14,0.00
2011,07,07,02,15,0.00
2011,07,07,02,16,0.00
2011,07,07,02,17,0.00
2011,07,07,02,18,0.00
2011,07,07,02,19,0.00
2011,07,07,02,20,0.00
2011,07,07,02,21,0.00
2011,07,07,02,22,0.00
2011,07,07,02,23,0.00
2011,07,07,02,24,0.00
2011,07,07,02,25,0.00
2011,07,07,02,26,0.00
2011,07,07,02,27,0.00
2011,07,07,02,28,0.00
2011,07,07,02,29,0.00
2011,07,07,02,30,0.00
2011,07,07,02,31,0.00
2011,07,07,02,32,0.00
2011,07,07,02,33,0.00
2011,07,07,02,34,0.00
2011,07,07,02,35,0.00
2011,07,07,02,36,0.00
2011,07,07,02,37,0.00
2011,07,07,02,38,0.00
2011,07,07,02,39,0.00
2011,07,07,02,40,0.00
2011,07,07,02,41,0.00
2011,07,07,02,42,0.00
2011,07,07,02,43,0.00
2011,07,07,02,44,0.00
2011,07,07,02,45,0.00
2011,07,07,02,46,0.00
2011,07,07,02,47,0.00
2011,07,07,02,48,0.00
2011,07,07,02,49,0.00
2011,07,07,02,50,0.00
2011,07,07,02,51,0.00
2011,07,07,02,52,0.00
2011,07,07,02,53,0.00
2011,07,07,02,54,0.00
2011,07,07,02,55,0.00
2011,07,07,02,56,0.00
2011,07,07,02,57,0.00
2011,07,07,02,58,0.00
2011,07,07,02,59,0.00
2011,07,07,03,00,0.00
2011,07,07,03,01,0.00
2011,07,07,03,02,0.00
2011,07,07,03,03,0.00
2011,07,07,03,04,0.00
2011,07,07,03,05,0.00
2011,07,07,03,06,0.00
2011,07,07,03,07,0.00
2011,07,07,03,08,0.00
2011,07,07,03,09,0.00
2011,07,07,03,10,0.00
2011,07,07,03,11,0.00
2011,07,07,03,12,0.00
2011,07,07,03,13,0.00
2011,07,07,03,14,0.00
2011,07,07,03,15,0.00
2011,07,07,03,16,0.00
2011,07,07,03,17,0.00
2011,07,07,03,18,0.00
2011,07,07,03,19,0.00
2011,07,07,03,20,0.00
2011,07,07,03,21,0.00
2011,07,07,03,22,0.00
2011,07,07,03,23,0.00
2011,07,07,03,24,0.00
2011,07,07,03,25,0.00
2011,07,07,03,26,0.00
2011,07,07,03,27,0.00
2011,07,07,03,28,0.00
2011,07,07,03,29,0.00
2011,07,07,03,30,0.00
2011,07,07,03,31,0.00
2011,07,07,03,32,0.00
2011,07,07,03,33,0.00
2011,07,07,03,34,0.00
2011,07,07,03,35,0.00
2011,07,07,03,36,0.00
2011,07,07,03,37,0.00
2011,07,07,03,38,0.00
2011,07,07,03,39,0.00
2011,07,07,03,40,0.00
2011,07,07,03,41,0.00
2011,07,07,03,42,0.00
2011,07,07,03,43,0.00
2011,07,07,03,44,0.00
2011,07,07,03,45,0.00
2011,07,07,03,46,0.00
2011,07,07,03,47,0.00
2011,07,07,03,48,0.00
2011,07,07,03,49,0.00
2011,07,07,03,50,0.00
2011,07,07,03,51,0.00
2011,07,07,03,52,0.00
2011,07,07,03,53,0.00
2011,07,07,03,54,0.00
2011,07,07,03,55,0.00
2011,07,07,03,56,0.00
2011,07,07,03,57,0.00
2011,07,07,03,58,0.00
2011,07,07,03,59,0.00
2011,07,07,04,00,0.00
2011,07,07,04,01,0.00
2011,07,07,04,02,0.00
2011,07,07,04,03,0.00
2011,07,07,04,04,0.00
2011,07,07,04,05,0.00
2011,07,07,04,06,0.00
2011,07,07,04,07,0.00
2011,07,07,04,08,0.00
2011,07,07,04,09,0.00
2011,07,07,04,10,0.00
2011,07,07,04,11,0.00
2011,07,07,04,12,0.00
2011,07,07,04,13,0.00
2011,07,07,04,14,0.00
2011,07,07,04,15,0.00
2011,07,07,04,16,0.00
2011,07,07,04,17,0.00
2011,07,07,04,18,0.00
2011,07,07,04,19,0.00
2011,07,07,04,20,0.00
2011,07,07,04,21,0.00
2011,07,07,04,22,0.00
2011,07,07,04,23,0.00
2011,07,07,04,24,0.00
2011,07,07,04,25,0.00
2011,07,07,04,26,0.00
2011,07,07,04,27,0.00
2011,07,07,04,28,0.00
2011,07,07,04,29,0.00
2011,07,07,04,30,0.00
2011,07,07,04,31,0.00
2011,07,07,04,32,0.00
2011,07,07,04,33,0.00
2011,07,07,04,34,0.00
2011,07,07,04,35,0.00
2011,07,07,04,36,0.00
2011,07,07,04,37,0.00
2011,07,07,04,38,0.00
2011,07,07,04,39,0.00
2011,07,07,04,40,0.00
2011,07,07,04,41,0.00
2011,07,07,04,42,0.00
2011,07,07,04,43,0.00
2011,07,07,04,44,0.00
2011,07,07,04,45,0.00
2011,07,07,04,46,0.00
2011,07,07,04,47,0.00
2011,07,07,04,48,0.00
2011,07,07,04,49,0.00
2011,07,07,04,50,0.00
2011,07,07,04,51,0.00
2011,07,07,04,52,0.00
2011,07,07,04,53,0.00
2011,07,07,04,54,0.00
2011,07,07,04,55,0.00
2011,07,07,04,56,0.00
2011,07,07,04,57,0.00
2011,07,07,04,58,0.00
2011,07,07,04,59,0.00
2011,07,07,05,00,0.00
2011,07,07,05,01,0.00
2011,07,07,05,02,0.00
2011,07,07,05,03,0.00
2011,07,07,05,04,0.00
2011,07,07,05,05,0.00
2011,07,07,05,06,0.00
2011,07,07,05,07,0.00
2011,07,07,05,08,0.00
2011,07,07,05,09,0.00
2011,07,07,05,10,0.00
2011,07,07,05,11,0.00
2011,07,07,05,12,0.00
2011,07,07,05,13,0.00
2011,07,07,05,14,0.00
2011,07,07,05,15,0.00
2011,07,07,05,16,0.00
2011,07,07,05,17,0.00
2011,07,07,05,18,0.00
2011,07,07,05,19,0.00
2011,07,07,05,20,0.00
2011,07,07,05,21,0.00
2011,07,07,05,22,0.00
2011,07,07,05,23,0.00
2011,07,07,05,24,0.00
2011,07,07,05,25,1.20
2011,07,07,05,26,5.00
2011,07,07,05,27,5.00
2011,07,07,05,28,6.40
2011,07,07,05,29,7.00
2011,07,07,05,30,7.00
2011,07,07,05,31,7.00
2011,07,07,05,32,7.00
2011,07,07,05,33,7.00
2011,07,07,05,34,7.00
2011,07,07,05,35,8.70
2011,07,07,05,36,9.00
2011,07,07,05,37,9.00
2011,07,07,05,38,9.00
2011,07,07,05,39,9.00
2011,07,07,05,40,10.50
2011,07,07,05,41,11.00
2011,07,07,05,42,11.00
2011,07,07,05,43,11.30
2011,07,07,05,44,12.00
2011,07,07,05,45,13.30
2011,07,07,05,46,14.00
2011,07,07,05,47,14.10
2011,07,07,05,48,16.00
2011,07,07,05,49,16.60
2011,07,07,05,50,18.00
2011,07,07,05,51,18.60
2011,07,07,05,52,19.00
2011,07,07,05,53,19.00
2011,07,07,05,54,19.00
2011,07,07,05,55,18.60
2011,07,07,05,56,18.00
2011,07,07,05,57,18.00
2011,07,07,05,58,18.80
2011,07,07,05,59,19.00
2011,07,07,06,00,19.00
2011,07,07,06,01,19.80
2011,07,07,06,02,21.00
2011,07,07,06,03,21.00
2011,07,07,06,04,21.00
2011,07,07,06,05,21.00
2011,07,07,06,06,21.00
2011,07,07,06,07,21.00
2011,07,07,06,08,21.00
2011,07,07,06,09,21.00
2011,07,07,06,10,22.70
2011,07,07,06,11,23.20
2011,07,07,06,12,25.00
2011,07,07,06,13,25.40
2011,07,07,06,14,26.00
2011,07,07,06,15,27.50
2011,07,07,06,16,28.00
2011,07,07,06,17,28.00
2011,07,07,06,18,28.00
2011,07,07,06,19,28.00
2011,07,07,06,20,28.00
2011,07,07,06,21,29.50
2011,07,07,06,22,30.00
2011,07,07,06,23,30.30
2011,07,07,06,24,32.30
2011,07,07,06,25,33.00
2011,07,07,06,26,34.10
2011,07,07,06,27,36.50
2011,07,07,06,28,38.80
2011,07,07,06,29,39.00
2011,07,07,06,30,39.00
2011,07,07,06,31,39.00
2011,07,07,06,32,39.60
2011,07,07,06,33,40.00
2011,07,07,06,34,42.00
2011,07,07,06,35,44.00
2011,07,07,06,36,44.00
2011,07,07,06,37,44.00
2011,07,07,06,38,44.00
2011,07,07,06,39,44.00
2011,07,07,06,40,45.90
2011,07,07,06,41,46.00
2011,07,07,06,42,46.30
2011,07,07,06,43,47.00
2011,07,07,06,44,48.30
2011,07,07,06,45,49.00
2011,07,07,06,46,47.00
2011,07,07,06,47,47.50
2011,07,07,06,48,49.00
2011,07,07,06,49,49.00
2011,07,07,06,50,49.00
2011,07,07,06,51,47.30
2011,07,07,06,52,47.30
2011,07,07,06,53,49.50
2011,07,07,06,54,51.00
2011,07,07,06,55,51.00
2011,07,07,06,56,51.00
2011,07,07,06,57,52.70
2011,07,07,06,58,53.20
2011,07,07,06,59,54.00
2011,07,07,07,00,55.90
2011,07,07,07,01,60.40
2011,07,07,07,02,62.00
2011,07,07,07,03,62.00
2011,07,07,07,04,67.40
2011,07,07,07,05,69.30
2011,07,07,07,06,71.90
2011,07,07,07,07,75.80
2011,07,07,07,08,80.00
2011,07,07,07,09,83.90
2011,07,07,07,10,88.30
2011,07,07,07,11,90.00
2011,07,07,07,12,90.00
2011,07,07,07,13,95.00
2011,07,07,07,14,101.20
2011,07,07,07,15,104.80
2011,07,07,07,16,105.00
2011,07,07,07,17,105.00
2011,07,07,07,18,104.50
2011,07,07,07,19,104.60
2011,07,07,07,20,106.50
2011,07,07,07,21,108.10
2011,07,07,07,22,119.80
2011,07,07,07,23,125.00
2011,07,07,07,24,132.00
2011,07,07,07,25,142.20
2011,07,07,07,26,148.00
2011,07,07,07,27,155.10
2011,07,07,07,28,158.00
2011,07,07,07,29,157.20
2011,07,07,07,30,155.40
2011,07,07,07,31,152.20
2011,07,07,07,32,145.10
2011,07,07,07,33,139.20
2011,07,07,07,34,136.00
2011,07,07,07,35,125.20
2011,07,07,07,36,121.30
2011,07,07,07,37,115.80
2011,07,07,07,38,111.30
2011,07,07,07,39,104.60
2011,07,07,07,40,101.40
2011,07,07,07,41,99.10
2011,07,07,07,42,98.00
2011,07,07,07,43,98.00
2011,07,07,07,44,97.10
2011,07,07,07,45,93.00
2011,07,07,07,46,93.00
2011,07,07,07,47,93.90
2011,07,07,07,48,96.80
2011,07,07,07,49,101.20
2011,07,07,07,50,106.80
2011,07,07,07,51,114.10
2011,07,07,07,52,119.80
2011,07,07,07,53,125.50
2011,07,07,07,54,131.60
2011,07,07,07,55,134.00
2011,07,07,07,56,141.30
2011,07,07,07,57,144.00
2011,07,07,07,58,144.00
2011,07,07,07,59,144.90
2011,07,07,08,00,144.80
2011,07,07,08,01,142.40
2011,07,07,08,02,142.00
2011,07,07,08,03,142.00
2011,07,07,08,04,142.00
2011,07,07,08,05,142.00
2011,07,07,08,06,142.00
2011,07,07,08,07,142.00
2011,07,07,08,08,140.80
2011,07,07,08,09,138.50
2011,07,07,08,10,135.80
2011,07,07,08,11,134.00
2011,07,07,08,12,134.00
2011,07,07,08,13,138.00
2011,07,07,08,14,142.20
2011,07,07,08,15,147.50
2011,07,07,08,16,153.10
2011,07,07,08,17,156.00
2011,07,07,08,18,163.70
2011,07,07,08,19,171.20
2011,07,07,08,20,178.80
2011,07,07,08,21,185.20
2011,07,07,08,22,192.20
2011,07,07,08,23,198.00
2011,07,07,08,24,203.00
2011,07,07,08,25,205.90
2011,07,07,08,26,209.00
2011,07,07,08,27,207.40
2011,07,07,08,28,203.10
2011,07,07,08,29,200.20
2011,07,07,08,30,199.00
2011,07,07,08,31,199.40
2011,07,07,08,32,206.90
2011,07,07,08,33,208.40
2011,07,07,08,34,213.50
2011,07,07,08,35,214.00
2011,07,07,08,36,214.00
2011,07,07,08,37,213.10
2011,07,07,08,38,213.80
2011,07,07,08,39,210.90
2011,07,07,08,40,203.70
2011,07,07,08,41,195.40
2011,07,07,08,42,193.00
2011,07,07,08,43,188.40
2011,07,07,08,44,190.40
2011,07,07,08,45,192.00
2011,07,07,08,46,192.00
2011,07,07,08,47,192.00
2011,07,07,08,48,192.90
2011,07,07,08,49,192.00
2011,07,07,08,50,192.00
2011,07,07,08,51,195.70
2011,07,07,08,52,208.60
2011,07,07,08,53,220.30
2011,07,07,08,54,228.90
2011,07,07,08,55,238.60
2011,07,07,08,56,245.80
2011,07,07,08,57,263.70
2011,07,07,08,58,263.20
2011,07,07,08,59,266.10
2011,07,07,09,00,315.80
2011,07,07,09,01,319.30
2011,07,07,09,02,287.00
2011,07,07,09,03,274.00
2011,07,07,09,04,259.20
2011,07,07,09,05,258.60
2011,07,07,09,06,261.90
2011,07,07,09,07,273.00
2011,07,07,09,08,295.70
2011,07,07,09,09,320.30
2011,07,07,09,10,306.00
2011,07,07,09,11,297.00
2011,07,07,09,12,288.60
2011,07,07,09,13,288.00
2011,07,07,09,14,297.50
2011,07,07,09,15,314.00
2011,07,07,09,16,335.40
2011,07,07,09,17,377.00
2011,07,07,09,18,376.80
2011,07,07,09,19,232.60
2011,07,07,09,20,244.30
2011,07,07,09,21,257.50
2011,07,07,09,22,265.00
2011,07,07,09,23,308.40
2011,07,07,09,24,316.60
2011,07,07,09,25,250.50
2011,07,07,09,26,264.00
2011,07,07,09,27,264.00
2011,07,07,09,28,264.00
2011,07,07,09,29,409.60
2011,07,07,09,30,496.00
2011,07,07,09,31,496.00
2011,07,07,09,32,496.00
2011,07,07,09,33,430.20
2011,07,07,09,34,345.60
2011,07,07,09,35,363.20
2011,07,07,09,36,305.30
2011,07,07,09,37,267.50
2011,07,07,09,38,288.80
2011,07,07,09,39,260.00
2011,07,07,09,40,268.40
2011,07,07,09,41,272.00
2011,07,07,09,42,317.90
2011,07,07,09,43,596.00
2011,07,07,09,44,638.00
2011,07,07,09,45,537.80
2011,07,07,09,46,497.20
2011,07,07,09,47,570.40
2011,07,07,09,48,578.00
2011,07,07,09,49,578.00
2011,07,07,09,50,598.70
2011,07,07,09,51,624.00
2011,07,07,09,52,455.80
2011,07,07,09,53,362.40
2011,07,07,09,54,357.00
2011,07,07,09,55,357.00
2011,07,07,09,56,357.00
2011,07,07,09,57,357.00
2011,07,07,09,58,357.00
2011,07,07,09,59,361.90
2011,07,07,10,00,455.00
2011,07,07,10,01,394.80
2011,07,07,10,02,283.00
2011,07,07,10,03,655.50
2011,07,07,10,04,803.10
2011,07,07,10,05,839.30
2011,07,07,10,06,842.00
2011,07,07,10,07,628.40
2011,07,07,10,08,308.00
2011,07,07,10,09,308.00
2011,07,07,10,10,308.00
2011,07,07,10,11,308.00
2011,07,07,10,12,308.00
2011,07,07,10,13,529.90
2011,07,07,10,14,835.00
2011,07,07,10,15,835.00
2011,07,07,10,16,835.00
2011,07,07,10,17,366.00
2011,07,07,10,18,366.00
2011,07,07,10,19,636.70
2011,07,07,10,20,993.60
2011,07,07,10,21,981.00
2011,07,07,10,22,981.00
2011,07,07,10,23,981.00
2011,07,07,10,24,980.40
2011,07,07,10,25,945.20
2011,07,07,10,26,920.40
2011,07,07,10,27,930.00
2011,07,07,10,28,930.00
2011,07,07,10,29,930.00
2011,07,07,10,30,930.00
2011,07,07,10,31,930.00
2011,07,07,10,32,846.60
2011,07,07,10,33,791.00
2011,07,07,10,34,437.50
2011,07,07,10,35,438.40
2011,07,07,10,36,447.30
2011,07,07,10,37,446.00
2011,07,07,10,38,398.60
2011,07,07,10,39,351.50
2011,07,07,10,40,349.50
2011,07,07,10,41,368.60
2011,07,07,10,42,443.00
2011,07,07,10,43,443.00
2011,07,07,10,44,393.00
2011,07,07,10,45,358.80
2011,07,07,10,46,442.40
2011,07,07,10,47,407.00
2011,07,07,10,48,389.30
2011,07,07,10,49,366.50
2011,07,07,10,50,371.00
2011,07,07,10,51,369.30
2011,07,07,10,52,447.40
2011,07,07,10,53,422.00
2011,07,07,10,54,422.00
2011,07,07,10,55,385.10
2011,07,07,10,56,355.00
2011,07,07,10,57,355.00
2011,07,07,10,58,359.80
2011,07,07,10,59,394.80
2011,07,07,11,00,405.80
2011,07,07,11,01,397.00
2011,07,07,11,02,440.40
2011,07,07,11,03,375.80
2011,07,07,11,04,364.80
2011,07,07,11,05,341.60
2011,07,07,11,06,343.00
2011,07,07,11,07,369.40
2011,07,07,11,08,370.10
2011,07,07,11,09,366.50
2011,07,07,11,10,367.00
2011,07,07,11,11,367.00
2011,07,07,11,12,367.00
2011,07,07,11,13,367.00
2011,07,07,11,14,367.00
2011,07,07,11,15,408.30
2011,07,07,11,16,345.40
2011,07,07,11,17,355.00
2011,07,07,11,18,355.00
2011,07,07,11,19,355.00
2011,07,07,11,20,355.00
2011,07,07,11,21,381.40
2011,07,07,11,22,856.00
2011,07,07,11,23,856.00
2011,07,07,11,24,579.00
2011,07,07,11,25,338.30
2011,07,07,11,26,352.60
2011,07,07,11,27,331.90
2011,07,07,11,28,380.00
2011,07,07,11,29,380.00
2011,07,07,11,30,380.00
2011,07,07,11,31,786.00
2011,07,07,11,32,960.00
2011,07,07,11,33,963.70
2011,07,07,11,34,997.00
2011,07,07,11,35,997.00
2011,07,07,11,36,854.00
2011,07,07,11,37,737.00
2011,07,07,11,38,928.20
2011,07,07,11,39,962.00
2011,07,07,11,40,962.00
2011,07,07,11,41,962.00
2011,07,07,11,42,962.00
2011,07,07,11,43,962.00
2011,07,07,11,44,1024.60
2011,07,07,11,45,1032.00
2011,07,07,11,46,1032.00
2011,07,07,11,47,1032.00
2011,07,07,11,48,1032.00
2011,07,07,11,49,1032.00
2011,07,07,11,50,1026.00
2011,07,07,11,51,912.00
2011,07,07,11,52,957.30
2011,07,07,11,53,1054.40
2011,07,07,11,54,1044.00
2011,07,07,11,55,1044.00
2011,07,07,11,56,1044.00
2011,07,07,11,57,1044.00
2011,07,07,11,58,1050.70
2011,07,07,11,59,1045.00
2011,07,07,12,00,1056.70
2011,07,07,12,01,1072.50
2011,07,07,12,02,1099.00
2011,07,07,12,03,1102.00
2011,07,07,12,04,1102.00
2011,07,07,12,05,1102.00
2011,07,07,12,06,1102.00
2011,07,07,12,07,1102.00
2011,07,07,12,08,1102.00
2011,07,07,12,09,1102.00
2011,07,07,12,10,1102.00
2011,07,07,12,11,1102.00
2011,07,07,12,12,1102.00
2011,07,07,12,13,602.80
2011,07,07,12,14,478.00
2011,07,07,12,15,478.00
2011,07,07,12,16,412.00
2011,07,07,12,17,313.00
2011,07,07,12,18,798.80
2011,07,07,12,19,1007.00
2011,07,07,12,20,1004.50
2011,07,07,12,21,981.90
2011,07,07,12,22,976.90
2011,07,07,12,23,972.90
2011,07,07,12,24,977.20
2011,07,07,12,25,994.30
2011,07,07,12,26,997.00
2011,07,07,12,27,997.00
2011,07,07,12,28,997.00
2011,07,07,12,29,997.00
2011,07,07,12,30,997.00
2011,07,07,12,31,483.50
2011,07,07,12,32,469.00
2011,07,07,12,33,469.00
2011,07,07,12,34,469.00
2011,07,07,12,35,552.40
2011,07,07,12,36,608.00
2011,07,07,12,37,1062.20
2011,07,07,12,38,1105.00
2011,07,07,12,39,1097.00
2011,07,07,12,40,1097.00
2011,07,07,12,41,1097.00
2011,07,07,12,42,992.80
2011,07,07,12,43,965.00
2011,07,07,12,44,976.20
2011,07,07,12,45,1016.20
2011,07,07,12,46,996.90
2011,07,07,12,47,986.00
2011,07,07,12,48,987.60
2011,07,07,12,49,992.80
2011,07,07,12,50,994.80
2011,07,07,12,51,1001.60
2011,07,07,12,52,1001.80
2011,07,07,12,53,993.80
2011,07,07,12,54,991.00
2011,07,07,12,55,991.00
2011,07,07,12,56,1003.60
2011,07,07,12,57,1041.80
2011,07,07,12,58,1049.80
2011,07,07,12,59,1055.10
2011,07,07,13,00,1059.40
2011,07,07,13,01,1064.20
2011,07,07,13,02,1100.10
2011,07,07,13,03,1134.00
2011,07,07,13,04,1134.00
2011,07,07,13,05,781.50
2011,07,07,13,06,664.00
2011,07,07,13,07,1108.90
2011,07,07,13,08,1136.40
2011,07,07,13,09,1172.00
2011,07,07,13,10,1172.00
2011,07,07,13,11,1128.50
2011,07,07,13,12,1102.70
2011,07,07,13,13,1094.80
2011,07,07,13,14,1093.60
2011,07,07,13,15,1067.60
2011,07,07,13,16,1056.00
2011,07,07,13,17,1055.20
2011,07,07,13,18,1082.90
2011,07,07,13,19,1086.00
2011,07,07,13,20,1066.40
2011,07,07,13,21,1025.50
2011,07,07,13,22,1015.80
2011,07,07,13,23,1004.30
2011,07,07,13,24,1000.60
2011,07,07,13,25,1004.00
2011,07,07,13,26,1004.00
2011,07,07,13,27,1000.50
2011,07,07,13,28,997.00
2011,07,07,13,29,997.00
2011,07,07,13,30,1003.80
2011,07,07,13,31,1007.20
2011,07,07,13,32,1018.00
2011,07,07,13,33,1031.00
2011,07,07,13,34,1044.80
2011,07,07,13,35,1049.00
2011,07,07,13,36,964.50
2011,07,07,13,37,960.00
2011,07,07,13,38,960.00
2011,07,07,13,39,960.00
2011,07,07,13,40,1011.80
2011,07,07,13,41,1026.40
2011,07,07,13,42,1016.00
2011,07,07,13,43,998.50
2011,07,07,13,44,985.80
2011,07,07,13,45,975.80
2011,07,07,13,46,966.50
2011,07,07,13,47,963.20
2011,07,07,13,48,979.80
2011,07,07,13,49,1022.30
2011,07,07,13,50,1044.00
2011,07,07,13,51,1044.00
2011,07,07,13,52,1044.00
2011,07,07,13,53,1052.90
2011,07,07,13,54,1111.00
2011,07,07,13,55,1111.00
2011,07,07,13,56,1111.00
2011,07,07,13,57,1111.00
2011,07,07,13,58,1111.00
2011,07,07,13,59,1111.00
2011,07,07,14,00,1111.00
2011,07,07,14,01,1084.10
2011,07,07,14,02,1071.90
2011,07,07,14,03,1114.00
2011,07,07,14,04,1114.00
2011,07,07,14,05,1114.00
2011,07,07,14,06,1114.00
2011,07,07,14,07,1047.80
2011,07,07,14,08,925.00
2011,07,07,14,09,925.00
2011,07,07,14,10,925.00
2011,07,07,14,11,925.00
2011,07,07,14,12,763.20
2011,07,07,14,13,271.40
2011,07,07,14,14,264.50
2011,07,07,14,15,308.60
2011,07,07,14,16,346.00
2011,07,07,14,17,350.00
2011,07,07,14,18,350.00
2011,07,07,14,19,350.00
2011,07,07,14,20,350.00
2011,07,07,14,21,350.00
2011,07,07,14,22,326.40
2011,07,07,14,23,322.00
2011,07,07,14,24,305.50
2011,07,07,14,25,253.90
2011,07,07,14,26,233.80
2011,07,07,14,27,235.50
2011,07,07,14,28,260.00
2011,07,07,14,29,329.00
2011,07,07,14,30,329.00
2011,07,07,14,31,329.00
2011,07,07,14,32,329.00
2011,07,07,14,33,329.00
2011,07,07,14,34,329.00
2011,07,07,14,35,329.00
2011,07,07,14,36,329.00
2011,07,07,14,37,316.40
2011,07,07,14,38,310.00
2011,07,07,14,39,316.00
2011,07,07,14,40,996.30
2011,07,07,14,41,1089.10
2011,07,07,14,42,1096.80
2011,07,07,14,43,1101.60
2011,07,07,14,44,1099.00
2011,07,07,14,45,1078.80
2011,07,07,14,46,1048.40
2011,07,07,14,47,1025.50
2011,07,07,14,48,1016.00
2011,07,07,14,49,1016.00
2011,07,07,14,50,1016.00
2011,07,07,14,51,1016.00
2011,07,07,14,52,956.60
2011,07,07,14,53,948.20
2011,07,07,14,54,946.40
2011,07,07,14,55,948.00
2011,07,07,14,56,947.70
2011,07,07,14,57,954.20
2011,07,07,14,58,967.00
2011,07,07,14,59,978.50
2011,07,07,15,00,1013.00
2011,07,07,15,01,1013.00
2011,07,07,15,02,1013.00
2011,07,07,15,03,1013.00
2011,07,07,15,04,983.00
2011,07,07,15,05,983.00
2011,07,07,15,06,983.00
2011,07,07,15,07,983.00
2011,07,07,15,08,983.00
2011,07,07,15,09,983.00
2011,07,07,15,10,983.00
2011,07,07,15,11,833.60
2011,07,07,15,12,485.00
2011,07,07,15,13,727.60
2011,07,07,15,14,897.20
2011,07,07,15,15,855.90
2011,07,07,15,16,892.80
2011,07,07,15,17,886.80
2011,07,07,15,18,903.50
2011,07,07,15,19,914.00
2011,07,07,15,20,914.00
2011,07,07,15,21,914.20
2011,07,07,15,22,919.00
2011,07,07,15,23,896.20
2011,07,07,15,24,853.50
2011,07,07,15,25,860.80
2011,07,07,15,26,896.20
2011,07,07,15,27,904.80
2011,07,07,15,28,868.00
2011,07,07,15,29,863.00
2011,07,07,15,30,897.00
2011,07,07,15,31,898.80
2011,07,07,15,32,856.80
2011,07,07,15,33,848.80
2011,07,07,15,34,848.90
2011,07,07,15,35,867.20
2011,07,07,15,36,862.00
2011,07,07,15,37,835.10
2011,07,07,15,38,832.60
2011,07,07,15,39,831.00
2011,07,07,15,40,830.00
2011,07,07,15,41,828.40
2011,07,07,15,42,827.10
2011,07,07,15,43,826.60
2011,07,07,15,44,829.40
2011,07,07,15,45,826.20
2011,07,07,15,46,823.80
2011,07,07,15,47,813.40
2011,07,07,15,48,807.80
2011,07,07,15,49,803.30
2011,07,07,15,50,802.00
2011,07,07,15,51,799.70
2011,07,07,15,52,797.50
2011,07,07,15,53,795.50
2011,07,07,15,54,795.00
2011,07,07,15,55,793.50
2011,07,07,15,56,791.20
2011,07,07,15,57,791.00
2011,07,07,15,58,791.70
2011,07,07,15,59,793.00
2011,07,07,16,00,793.00
2011,07,07,16,01,794.60
2011,07,07,16,02,793.10
2011,07,07,16,03,791.00
2011,07,07,16,04,790.30
2011,07,07,16,05,788.50
2011,07,07,16,06,786.70
2011,07,07,16,07,784.40
2011,07,07,16,08,790.20
2011,07,07,16,09,804.90
2011,07,07,16,10,814.50
2011,07,07,16,11,819.00
2011,07,07,16,12,823.50
2011,07,07,16,13,821.80
2011,07,07,16,14,813.80
2011,07,07,16,15,806.30
2011,07,07,16,16,794.10
2011,07,07,16,17,787.30
2011,07,07,16,18,776.20
2011,07,07,16,19,767.20
2011,07,07,16,20,757.30
2011,07,07,16,21,748.60
2011,07,07,16,22,739.20
2011,07,07,16,23,732.70
2011,07,07,16,24,731.00
2011,07,07,16,25,728.60
2011,07,07,16,26,727.70
2011,07,07,16,27,725.40
2011,07,07,16,28,721.90
2011,07,07,16,29,721.80
2011,07,07,16,30,722.60
2011,07,07,16,31,717.50
2011,07,07,16,32,714.80
2011,07,07,16,33,713.40
2011,07,07,16,34,711.10
2011,07,07,16,35,708.70
2011,07,07,16,36,709.50
2011,07,07,16,37,709.80
2011,07,07,16,38,707.00
2011,07,07,16,39,706.40
2011,07,07,16,40,703.20
2011,07,07,16,41,699.20
2011,07,07,16,42,696.40
2011,07,07,16,43,697.50
2011,07,07,16,44,693.00
2011,07,07,16,45,692.30
2011,07,07,16,46,689.10
2011,07,07,16,47,687.00
2011,07,07,16,48,681.50
2011,07,07,16,49,680.00
2011,07,07,16,50,679.40
2011,07,07,16,51,677.70
2011,07,07,16,52,677.90
2011,07,07,16,53,674.40
2011,07,07,16,54,671.40
2011,07,07,16,55,667.60
2011,07,07,16,56,663.80
2011,07,07,16,57,662.20
2011,07,07,16,58,661.00
2011,07,07,16,59,657.80
2011,07,07,17,00,656.00
2011,07,07,17,01,649.30
2011,07,07,17,02,648.50
2011,07,07,17,03,645.00